DW1384 Weather Reports


Display with metric or nautical units.
time (UTC)temp
F
wind
direction
speed
MPH
gust
MPH
rain 1hr
in
rain 24hr
in
rain mn
in
humidity
%
barometer
mb
20260508175047 57 118 0.0 0.0 0.00 0.00 0.00 70 1017.3
20260508174542 58 111 0.0 0.0 0.00 0.00 0.00 70 1017.3
20260508174037 58 37 0.0 0.0 0.00 0.00 0.00 70 1017.2
20260508173529 58 49 0.0 0.0 0.00 0.00 0.00 70 1017.2
20260508173023 58 315 0.0 0.0 0.00 0.00 0.00 69 1017.1
20260508172519 58 22 0.0 0.0 0.00 0.00 0.00 68 1017.2
20260508172012 59 26 0.0 0.0 0.00 0.00 0.00 68 1017.1
20260508171505 59 359 0.0 0.0 0.00 0.00 0.00 68 1017.1
20260508170959 58 332 0.0 0.0 0.00 0.00 0.00 69 1016.8
20260508170454 58 8 0.0 0.0 0.00 0.00 0.00 69 1016.8
20260508165947 58 68 0.0 0.0 0.00 0.00 0.00 68 1017.0
20260508165441 58 8 0.0 0.0 0.00 0.00 0.00 68 1017.1
20260508164937 59 22 0.0 0.0 0.00 0.00 0.00 67 1017.1
20260508164436 59 40 0.0 0.0 0.00 0.00 0.00 67 1017.1
20260508163934 59 34 0.0 0.0 0.00 0.00 0.00 66 1017.0
20260508163651 60 33 0.0 0.0 0.00 0.00 0.00 65 1016.8
20260508162931 59 10 0.0 0.0 0.00 0.00 0.00 64 1016.7
20260508162433 59 14 0.0 0.0 0.00 0.00 0.00 64 1016.7
20260508161932 59 6 0.0 0.0 0.00 0.00 0.00 65 1016.8
20260508161659 59 348 0.0 0.0 0.00 0.00 0.00 64 1016.8
20260508160931 59 22 0.0 0.0 0.00 0.00 0.00 64 1017.0
20260508160431 59 269 0.0 0.0 0.00 0.00 0.00 64 1017.0
20260508155930 59 293 0.0 0.0 0.00 0.00 0.00 63 1017.0
20260508155430 59 294 0.0 0.0 0.00 0.00 0.00 64 1017.1
20260508155421 59 303 0.0 0.0 0.00 0.00 0.00 63 1017.1
20260508154429 59 313 0.0 0.0 0.00 0.00 0.00 63 1017.1
20260508153929 59 315 0.0 0.0 0.00 0.00 0.00 63 1017.1
20260508153430 59 307 0.0 0.0 0.00 0.00 0.00 62 1017.1
20260508152930 59 330 0.0 0.0 0.00 0.00 0.00 61 1017.1
20260508152432 59 343 0.0 0.0 0.00 0.00 0.00 60 1017.1
20260508151931 60 311 0.0 0.0 0.00 0.00 0.00 58 1017.0
20260508151429 60 321 0.0 0.0 0.00 0.00 0.00 58 1017.0
20260508150929 60 313 0.0 0.0 0.00 0.00 0.00 57 1017.1
20260508150444 60 313 0.0 0.0 0.00 0.00 0.00 56 1017.1
20260508145930 60 348 0.0 0.0 0.00 0.00 0.00 56 1017.1
20260508145432 61 343 0.0 0.0 0.00 0.00 0.00 56 1017.1
20260508144930 60 358 0.0 0.0 0.00 0.00 0.00 56 1017.0
20260508144425 61 323 0.0 0.0 0.00 0.00 0.00 55 1017.0
20260508143926 61 357 0.0 0.0 0.00 0.00 0.00 55 1017.0
20260508142350 60 326 0.0 0.0 0.00 0.00 0.00 54 1017.2
20260508141851 60 332 0.0 0.0 0.00 0.00 0.00 54 1017.1
20260508141349 60 285 0.0 0.0 0.00 0.00 0.00 54 1017.1
20260508140902 60 294 0.0 0.0 0.00 0.00 0.00 53 1017.1
20260508140403 60 318 0.0 0.0 0.00 0.00 0.00 52 1017.0
20260508140106 61 306 0.0 0.0 0.00 0.00 0.00 52 1017.1
20260508135350 61 307 0.0 0.0 0.00 0.00 0.00 51 1017.0
20260508134850 61 319 0.0 0.0 0.00 0.00 0.00 52 1017.1
20260508134350 61 150 0.0 0.0 0.00 0.00 0.00 51 1017.1
20260508133849 61 147 0.0 0.0 0.00 0.00 0.00 51 1017.1
20260508133612 61 86 0.0 0.0 0.00 0.00 0.00 50 1016.8
20260508132849 62 85 0.0 0.0 0.00 0.00 0.00 50 1017.0
20260508132348 62 34 0.0 0.0 0.00 0.00 0.00 50 1016.8
20260508131841 63 1 0.0 0.0 0.00 0.00 0.00 49 1017.0
20260508131325 62 1 0.0 0.0 0.00 0.00 0.00 49 1017.1
20260508131049 62 348 0.0 0.0 0.00 0.00 0.00 49 1017.1
20260508130327 63 32 0.0 0.0 0.00 0.00 0.00 50 1017.2
20260508130047 62 353 0.0 0.0 0.00 0.00 0.00 51 1017.2
20260508125326 61 318 0.0 0.0 0.00 0.00 0.00 52 1017.2
20260508124826 61 36 0.0 0.0 0.00 0.00 0.00 53 1017.2
20260508124327 60 40 0.0 0.0 0.00 0.00 0.00 53 1017.3
20260508123826 61 35 0.0 0.0 0.00 0.00 0.00 53 1017.2
20260508123325 60 51 0.0 0.0 0.00 0.00 0.00 52 1017.1
20260508122822 60 54 0.0 0.0 0.00 0.00 0.00 52 1017.1
20260508122322 62 66 0.0 0.0 0.00 0.00 0.00 48 1017.1
20260508121823 63 212 0.0 0.0 0.00 0.00 0.00 48 1017.1
20260508121319 62 157 0.0 0.0 0.00 0.00 0.00 51 1017.1
20260508121041 62 72 0.0 0.0 0.00 0.00 0.00 50 1017.1
20260508120318 62 49 0.0 0.0 0.00 0.00 0.00 51 1017.1
20260508115817 61 343 0.0 0.0 0.00 0.00 0.00 51 1017.1
20260508115319 61 47 0.0 0.0 0.00 0.00 0.00 52 1017.1
20260508114819 62 57 0.0 0.0 0.00 0.00 0.00 51 1017.1
20260508114317 63 26 0.0 0.0 0.00 0.00 0.00 50 1017.2
20260508114039 63 14 0.0 0.0 0.00 0.00 0.00 49 1017.2
20260508112432 64 10 0.0 0.0 0.00 0.00 0.00 48 1017.2
20260508111921 63 348 0.0 0.0 0.00 0.00 0.00 50 1017.2
20260508111413 62 18 0.0 0.0 0.00 0.00 0.00 52 1017.2
20260508111128 60 182 0.0 0.0 0.00 0.00 0.00 51 1017.3
20260508110357 60 165 0.0 0.0 0.00 0.00 0.00 50 1017.3
20260508110107 59 259 0.0 0.0 0.00 0.00 0.00 50 1017.4
20260508105228 59 260 0.0 0.0 0.00 0.00 0.00 50 1017.4
20260508104946 61 284 0.0 0.0 0.00 0.00 0.00 54 1017.4
20260508104221 61 27 0.0 0.0 0.00 0.00 0.00 56 1017.4
20260508103710 60 343 0.0 0.0 0.00 0.00 0.00 58 1017.4
20260508103155 59 228 0.0 0.0 0.00 0.00 0.00 62 1017.4
20260508102645 58 161 0.0 0.0 0.00 0.00 0.00 63 1017.4
20260508102133 57 275 0.0 0.0 0.00 0.00 0.00 61 1017.6
20260508101624 57 200 0.0 0.0 0.00 0.00 0.00 60 1017.6
20260508101112 57 219 0.0 0.0 0.00 0.00 0.00 61 1017.7
20260508100603 57 257 0.0 0.0 0.00 0.00 0.00 62 1017.7
20260508095950 58 128 0.0 0.0 0.00 0.00 0.00 64 1017.7
20260508095442 58 190 0.0 0.0 0.00 0.00 0.00 62 1017.8
20260508094929 58 263 0.0 0.0 0.00 0.00 0.00 63 1017.8
20260508094417 59 319 0.0 0.0 0.00 0.00 0.00 63 1017.8
20260508093902 57 184 0.0 0.0 0.00 0.00 0.00 67 1017.8
20260508093618 56 158 0.0 0.0 0.00 0.00 0.00 67 1017.8
20260508093102 56 309 0.0 0.0 0.00 0.00 0.00 68 1017.8
20260508092323 56 284 0.0 0.0 0.00 0.00 0.00 69 1017.8
20260508091811 56 264 0.0 0.0 0.00 0.00 0.00 68 1017.8
20260508091240 56 265 0.0 0.0 0.00 0.00 0.00 71 1017.9
20260508090710 57 244 0.0 0.0 0.00 0.00 0.00 72 1017.9
20260508090159 57 8 0.0 0.0 0.00 0.00 0.00 77 1017.8
20260508085629 56 282 0.0 0.0 0.00 0.00 0.00 80 1017.8
20260508085116 55 328 0.0 0.0 0.00 0.00 0.00 82 1017.9
20260508084607 55 24 0.0 0.0 0.00 0.00 0.00 84 1017.9
20260508084049 53 115 0.0 0.0 0.00 0.00 0.00 85 1017.9
20260508083540 52 135 0.0 0.0 0.00 0.00 0.00 87 1017.9
20260508083025 51 136 0.0 0.0 0.00 0.00 0.00 88 1018.0
20260508082515 50 187 0.0 0.0 0.00 0.00 0.00 90 1018.0
20260508082218 50 255 0.0 0.0 0.00 0.00 0.00 90 1017.9
20260508081453 49 177 0.0 0.0 0.00 0.00 0.00 91 1018.0
20260508080942 49 189 0.0 0.0 0.00 0.00 0.00 91 1018.1
20260508080345 48 180 0.0 0.0 0.00 0.00 0.00 91 1018.1
20260508075724 48 166 0.0 0.0 0.00 0.00 0.00 91 1018.0
20260508075217 47 166 0.0 0.0 0.00 0.00 0.00 91 1018.1
20260508074659 47 166 0.0 0.0 0.00 0.00 0.00 91 1018.2
20260508074147 47 166 0.0 0.0 0.00 0.00 0.00 91 1018.2
20260508073640 47 166 0.0 0.0 0.00 0.00 0.00 91 1018.3
20260508073128 47 163 0.0 0.0 0.00 0.00 0.00 91 1018.3
20260508072613 47 167 0.0 0.0 0.00 0.00 0.00 92 1018.2
20260508072102 46 170 0.0 0.0 0.00 0.00 0.00 91 1018.3
20260508071554 45 170 0.0 0.0 0.00 0.00 0.00 91 1018.5
20260508071041 45 175 0.0 0.0 0.00 0.00 0.00 92 1018.4
20260508070754 44 175 0.0 0.0 0.00 0.00 0.00 91 1018.4
20260508065914 44 176 0.0 0.0 0.00 0.00 0.00 92 1018.3
20260508065406 42 176 0.0 0.0 0.00 0.00 0.00 92 1018.3
20260508064855 42 176 0.0 0.0 0.00 0.00 0.00 91 1018.3
20260508064534 41 176 0.0 0.0 0.00 0.00 0.00 91 1018.3
20260508063814 40 176 0.0 0.0 0.00 0.00 0.00 92 1018.3
20260508063313 40 176 0.0 0.0 0.00 0.00 0.00 92 1018.2
20260508062811 39 176 0.0 0.0 0.00 0.00 0.00 91 1018.2
20260508062310 38 176 0.0 0.0 0.00 0.00 0.00 91 1018.3
20260508061811 38 182 0.0 0.0 0.00 0.00 0.00 91 1018.2
20260508061322 38 182 0.0 0.0 0.00 0.00 0.00 91 1018.1
20260508061029 38 185 0.0 0.0 0.00 0.00 0.00 91 1018.0
20260508060310 38 185 0.0 0.0 0.00 0.00 0.00 91 1018.1
20260508055809 38 185 0.0 0.0 0.00 0.00 0.00 91 1018.0
20260508055309 38 185 0.0 0.0 0.00 0.00 0.00 91 1018.1
20260508054809 37 185 0.0 0.0 0.00 0.00 0.00 91 1018.0
20260508054307 37 185 0.0 0.0 0.00 0.00 0.00 91 1018.1
20260508053805 37 185 0.0 0.0 0.00 0.00 0.00 91 1018.1
20260508053311 37 185 0.0 0.0 0.00 0.00 0.00 91 1018.0
20260508053306 37 185 0.0 0.0 0.00 0.00 0.00 91 1018.0
20260508052307 37 185 0.0 0.0 0.00 0.00 0.00 91 1017.9
20260508051804 37 185 0.0 0.0 0.00 0.00 0.00 91 1018.0
20260508051307 37 185 0.0 0.0 0.00 0.00 0.00 91 1017.9
20260508051013 37 184 0.0 0.0 0.00 0.00 0.00 91 1017.8
20260508050900 37 185 0.0 0.0 0.00 0.00 0.00 91 1017.8
20260508045801 37 176 0.0 0.0 0.00 0.00 0.00 91 1017.8
20260508045526 37 176 0.0 0.0 0.00 0.00 0.00 91 1017.8
20260508044757 37 176 0.0 0.0 0.00 0.00 0.00 91 1017.7
20260508044256 37 177 0.0 0.0 0.00 0.00 0.00 91 1017.7
20260508044022 37 176 0.0 0.0 0.00 0.00 0.00 91 1017.7
20260508043257 37 175 0.0 0.0 0.00 0.00 0.00 91 1017.6
20260508042755 37 175 0.0 0.0 0.00 0.00 0.00 91 1017.7
20260508042531 36 175 0.0 0.0 0.00 0.00 0.00 91 1017.7
20260508041751 37 175 0.0 0.0 0.00 0.00 0.00 91 1017.6
20260508041507 37 175 0.0 0.0 0.00 0.00 0.00 91 1017.6
20260508041013 37 177 0.0 0.0 0.00 0.00 0.00 91 1017.6
20260508040246 37 177 0.0 0.0 0.00 0.00 0.00 90 1017.6
20260508035738 37 180 0.0 0.0 0.00 0.00 0.00 91 1017.7
20260508035451 37 180 0.0 0.0 0.00 0.00 0.00 91 1017.7
20260508034726 37 180 0.0 0.0 0.00 0.00 0.00 91 1017.6
20260508034438 37 180 0.0 0.0 0.00 0.00 0.00 91 1017.8
20260508033716 37 180 0.0 0.0 0.00 0.00 0.00 91 1017.7
20260508033209 37 180 0.0 0.0 0.00 0.00 0.00 91 1017.6
20260508032702 37 181 0.0 0.0 0.00 0.00 0.00 91 1017.6
20260508032156 37 181 0.0 0.0 0.00 0.00 0.00 91 1017.7
20260508031651 37 181 0.0 0.0 0.00 0.00 0.00 91 1017.6
20260508031144 37 181 0.0 0.0 0.00 0.00 0.00 90 1017.7
20260508030639 37 181 0.0 0.0 0.00 0.00 0.00 90 1017.6
20260508030414 37 184 0.0 0.0 0.00 0.00 0.00 90 1017.6
20260508025627 37 181 0.0 0.0 0.00 0.00 0.00 90 1017.6
20260508025121 37 182 0.0 0.0 0.00 0.00 0.00 90 1017.6
20260508024616 37 182 0.0 0.0 0.00 0.00 0.00 90 1017.6
20260508024109 37 183 0.0 0.0 0.00 0.00 0.00 90 1017.6
20260508023604 37 182 0.0 0.0 0.00 0.00 0.00 90 1017.6
20260508023056 38 176 0.0 0.0 0.00 0.00 0.00 90 1017.6
20260508022551 38 183 0.0 0.0 0.00 0.00 0.00 90 1017.6
20260508022044 38 182 0.0 0.0 0.00 0.00 0.00 90 1017.6
20260508021538 38 180 0.0 0.0 0.00 0.00 0.00 90 1017.5
20260508021034 38 180 0.0 0.0 0.00 0.00 0.00 90 1017.5
20260508020527 38 177 0.0 0.0 0.00 0.00 0.00 90 1017.5
20260508020020 38 180 0.0 0.0 0.00 0.00 0.00 90 1017.5
20260508015515 38 180 0.0 0.0 0.00 0.00 0.00 90 1017.5
20260508015008 38 176 0.0 0.0 0.00 0.00 0.00 90 1017.5
20260508014502 38 170 0.0 0.0 0.00 0.00 0.00 90 1017.4
20260508013956 38 172 0.0 0.0 0.00 0.00 0.00 90 1017.4
20260508013450 38 172 0.0 0.0 0.00 0.00 0.00 90 1017.5
20260508012944 38 170 0.0 0.0 0.00 0.00 0.00 90 1017.4
20260508012439 38 120 0.0 0.0 0.00 0.00 0.00 90 1017.4
20260508012155 38 119 0.0 0.0 0.00 0.00 0.00 90 1017.4
20260508011647 38 104 0.0 0.0 0.00 0.00 0.00 90 1017.4
20260508010921 38 104 0.0 0.0 0.00 0.00 0.00 90 1017.4
20260508010415 38 104 0.0 0.0 0.00 0.00 0.00 90 1017.4
20260508005909 38 104 0.0 0.0 0.00 0.00 0.00 90 1017.4
20260508005404 38 104 0.0 0.0 0.00 0.00 0.00 90 1017.4
20260508004857 38 104 0.0 0.0 0.00 0.00 0.00 90 1017.4
20260508004613 38 104 0.0 0.0 0.00 0.00 0.00 90 1017.4
20260508003846 38 104 0.0 0.0 0.00 0.00 0.00 90 1017.4
20260508003339 38 104 0.0 0.0 0.00 0.00 0.00 90 1017.4
20260508002834 38 104 0.0 0.0 0.00 0.00 0.00 90 1017.4
20260508002328 38 104 0.0 0.0 0.00 0.00 0.00 89 1017.4
20260508001826 38 104 0.0 0.0 0.00 0.00 0.00 90 1017.4
20260508001338 38 103 0.0 0.0 0.00 0.00 0.00 89 1017.5
20260508000827 38 103 0.0 0.0 0.00 0.00 0.00 89 1017.5
20260508000327 38 103 0.0 0.0 0.00 0.00 0.00 89 1017.5
20260508000305 38 95 0.0 0.0 0.00 0.00 0.00 89 1017.6
20260507235324 38 94 0.0 0.0 0.00 0.00 0.00 89 1017.6
20260507235045 38 93 0.0 0.0 0.00 0.00 0.00 89 1017.6
20260507234324 38 93 0.0 0.0 0.00 0.00 0.00 89 1017.6
20260507233823 38 93 0.0 0.0 0.00 0.00 0.00 89 1017.5
20260507233323 38 93 0.0 0.0 0.00 0.00 0.00 89 1017.5
20260507233047 39 93 0.0 0.0 0.00 0.00 0.00 89 1017.6
20260507232320 39 93 0.0 0.0 0.00 0.00 0.00 89 1017.5
20260507231810 39 93 0.0 0.0 0.00 0.00 0.00 89 1017.5
20260507231304 39 93 0.0 0.0 0.00 0.00 0.00 89 1017.5
20260507230759 39 93 0.0 0.0 0.00 0.00 0.00 89 1017.5
20260507230738 39 93 0.0 0.0 0.00 0.00 0.00 89 1017.5
20260507230011 40 93 0.0 0.0 0.00 0.00 0.00 89 1017.5
20260507225242 40 93 0.0 0.0 0.00 0.00 0.00 89 1017.5
20260507224735 40 92 0.0 0.0 0.00 0.00 0.00 89 1017.3
20260507224230 40 92 0.0 0.0 0.00 0.00 0.00 89 1017.3
20260507223729 40 92 0.0 0.0 0.00 0.00 0.00 89 1017.4
20260507223229 40 92 0.0 0.0 0.00 0.00 0.00 89 1017.3
20260507222741 40 92 0.0 0.0 0.00 0.00 0.00 89 1017.3
20260507222229 40 92 0.0 0.0 0.00 0.00 0.00 89 1017.3
20260507221729 40 92 0.0 0.0 0.00 0.00 0.00 89 1017.3
20260507221227 40 92 0.0 0.0 0.00 0.00 0.00 88 1017.3
20260507220727 41 91 0.0 0.0 0.00 0.00 0.00 88 1017.3
20260507220228 41 83 0.0 0.0 0.00 0.00 0.00 88 1017.3
20260507215726 41 83 0.0 0.0 0.00 0.00 0.00 88 1017.3
20260507215228 41 83 0.0 0.0 0.00 0.00 0.00 88 1017.2
20260507214726 41 83 0.0 0.0 0.00 0.00 0.00 88 1017.2
20260507214226 42 84 0.0 0.0 0.00 0.00 0.00 88 1017.1
20260507213726 41 83 0.0 0.0 0.00 0.00 0.00 88 1017.1
20260507213240 41 83 0.0 0.0 0.00 0.00 0.00 88 1017.1
20260507212728 42 83 0.0 0.0 0.00 0.00 0.00 88 1017.1
20260507212222 42 83 0.0 0.0 0.00 0.00 0.00 88 1017.2
20260507211723 42 83 0.0 0.0 0.00 0.00 0.00 88 1017.1
20260507211222 42 83 0.0 0.0 0.00 0.00 0.00 88 1017.1
20260507210722 42 83 0.0 0.0 0.00 0.00 0.00 87 1017.1
20260507210449 42 82 0.0 0.0 0.00 0.00 0.00 87 1017.1
20260507205723 43 83 0.0 0.0 0.00 0.00 0.00 87 1017.1
20260507205224 43 82 0.0 0.0 0.00 0.00 0.00 87 1017.0
20260507204723 43 82 0.0 0.0 0.00 0.00 0.00 87 1017.0
20260507204223 43 80 0.0 0.0 0.00 0.00 0.00 87 1017.0
20260507203718 44 80 0.0 0.0 0.00 0.00 0.00 87 1017.0
20260507203218 44 79 0.0 0.0 0.00 0.00 0.00 87 1016.7
20260507202720 44 78 0.0 0.0 0.00 0.00 0.00 86 1016.7
20260507202218 44 78 0.0 0.0 0.00 0.00 0.00 86 1016.7
20260507201718 44 78 0.0 0.0 0.00 0.00 0.00 86 1016.7
20260507201219 44 78 0.0 0.0 0.00 0.00 0.00 86 1016.7
20260507200719 45 78 0.0 0.0 0.00 0.00 0.00 86 1016.7
20260507200441 45 78 0.0 0.0 0.00 0.00 0.00 86 1016.7
20260507195733 45 78 0.0 0.0 0.00 0.00 0.00 85 1016.7
20260507195212 45 78 0.0 0.0 0.00 0.00 0.00 85 1016.6
20260507194925 46 78 0.0 0.0 0.00 0.00 0.00 85 1016.5
20260507194810 46 78 0.0 0.0 0.00 0.00 0.00 85 1016.5
20260507193932 46 78 0.0 0.0 0.00 0.00 0.00 85 1016.5
20260507193430 46 78 0.0 0.0 0.00 0.00 0.00 84 1016.4
20260507192706 47 68 0.0 0.0 0.00 0.00 0.00 84 1016.3
20260507192205 47 68 0.0 0.0 0.00 0.00 0.00 83 1016.2
20260507191703 48 58 0.0 0.0 0.00 0.00 0.00 83 1016.2
20260507191423 48 58 0.0 0.0 0.00 0.00 0.00 82 1016.2
20260507190705 49 58 0.0 0.0 0.00 0.00 0.00 81 1016.2
20260507190155 50 58 0.0 0.0 0.00 0.00 0.00 80 1016.2
20260507185649 51 57 0.0 0.0 0.00 0.00 0.00 79 1016.2
20260507185144 51 58 0.0 0.0 0.00 0.00 0.00 78 1016.1
20260507184854 51 47 0.0 0.0 0.00 0.00 0.00 77 1016.1
20260507184130 52 47 0.0 0.0 0.00 0.00 0.00 76 1016.0
20260507183622 52 49 0.0 0.0 0.00 0.00 0.00 76 1016.0
20260507183115 52 34 0.0 0.0 0.00 0.00 0.00 75 1016.0
20260507182609 53 5 0.0 0.0 0.00 0.00 0.00 75 1016.0
20260507182105 53 155 0.0 0.0 0.00 0.00 0.00 75 1015.8
20260507181558 54 34 0.0 0.0 0.00 0.00 0.00 75 1015.9
20260507181052 53 34 0.0 0.0 0.00 0.00 0.00 75 1015.6
20260507180547 53 67 0.0 0.0 0.00 0.00 0.00 75 1015.6
20260507180052 54 65 0.0 0.0 0.00 0.00 0.00 74 1015.6
20260507175533 53 42 0.0 0.0 0.00 0.00 0.00 74 1015.6